Regional Weather Roundup
Issued by NWS

Home | Current Version | Previous Version | Text Only | Print | Product List | Glossary Off
Versions: 1 2 3 4 5 6 7 8 9 10 11 12 13 14 15 16 17 18 19 20 21 22 23 24 25 26 27 28 29 30 31 32 33 34 35 36 37 38 39 40 41 42 43 44 45 46 47 48 49 50

000
ASUS45 KBOI 012310
RWRID

IDAHO REGIONAL WEATHER ROUNDUP
NATIONAL WEATHER SERVICE BOISE ID
500 PM MDT SAT AUG 01 2015

NOTE: "FAIR" INDICATES FEW OR NO CLOUDS BELOW 12000 FEET
WITH NO SIGNIFICANT WEATHER AND/OR OBSTRUCTIONS TO VISIBILITY

IDZ012-014-020000-
SOUTHWEST IDAHO


CITY           SKY/WX    TMP DP  RH WIND       PRES   REMARKS
BOISE          SUNNY    102  36  10 N8        29.92F HX  96
CALDWELL       SUNNY    102  39  11 NE3       29.90F HX  97
MOUNTAIN HOME  SUNNY    102  28   7 VRB2      29.91F HX  95
$$

IDZ016-017-020000-
SOUTHCENTRAL IDAHO


CITY           SKY/WX    TMP DP  RH WIND       PRES   REMARKS
BURLEY         MOSUNNY   94  28   9 VRB3      30.01F
JEROME         SUNNY     93  48  21 W6        30.02F
TWIN FALLS     SUNNY     99  29   8 NW7       30.00F HX  93
$$

IDZ019>023-020000-
SOUTHEAST IDAHO


CITY           SKY/WX    TMP DP  RH WIND       PRES   REMARKS
IDAHO FALLS    SUNNY     92  31  11 NW3       30.08F
POCATELLO      SUNNY     95  25   8 E6        30.06F
REXBURG        SUNNY     90  28  11 VRB5      30.08F
$$

IDZ006-010-011-018-031-032-020000-
CENTRAL IDAHO MOUNTAINS


CITY           SKY/WX    TMP DP  RH WIND       PRES   REMARKS
MCCALL         SUNNY     92  32  12 SW8G23    30.09F
HAILEY         MOSUNNY   90  39  17 S10       30.11F
STANLEY          N/A     84  27  12 NW8       30.22F
SALMON         SUNNY     93  36  13 NE5       29.95F
CHALLIS        MOSUNNY   92  33  12 S6        30.06F
$$

IDZ002-004-006-007-026-020000-
NORTHERN IDAHO


CITY           SKY/WX    TMP DP  RH WIND       PRES   REMARKS
LEWISTON       SUNNY    106  31   7 NW14G21   29.83F HX  99
LOWELL           N/A    104  44  13 VRB3      29.81F HX  99
COEUR D`ALENE  SUNNY     97  34  11 SW9       29.89F HX  91
MULLAN PASS    SUNNY     78  29  16 MISG      30.19F
$$



USA.gov is the U.S. government's official web portal to all federal, state and local government web resources and services.